Weather History for Morrisville, VT

Change the Weather History Date:

Thursday, February 21, 2013

  Actual Average Record
Temperature  
Mean Temperature 14 °F 20 °F  
Max Temperature 19 °F 32 °F 55 °F (1997)
Min Temperature 9 °F 8 °F -2 °F (2008)
Degree Days  
Heating Degree Days 51 45  
Month to date heating degree days 989 994  
Since 1 July heating degree days 5302 5656  
Cooling Degree Days 0 0  
Month to date cooling degree days 0 0  
Year to date cooling degree days 0 0  
Moisture  
Dew Point 7 °F    
Average Humidity 71    
Maximum Humidity 80    
Minimum Humidity 61    
Precipitation  
Precipitation T in 0.07 in 0.50 in (2014)
Month to date precipitation 0.84 1.30  
Year to date precipitation 2.39 3.84  
Sea Level Pressure  
Sea Level Pressure 29.99 in    
Wind  
Wind Speed 6 mph (North)    
Max Wind Speed 16 mph    
Max Gust Speed 23 mph    
Visibility 6 miles    
Events Snow    
T = Trace of Precipitation, MM = Missing Value Source: NWS Daily Summary

Daily Weather History Graph

Daily Weather History Graph

Search for Another Location

Airport:

Trip Planner

Search our weather history database for the weather conditions in past years. The results will help you decide how hot, cold, wet, or windy it might be!

Date:

Astronomy

Feb. 21, 2013 Rise Set
Actual Time 6:40 AM EST 5:27 PM EST
Civil Twilight 6:11 AM EST 5:57 PM EST
Nautical Twilight 5:37 AM EST 6:31 PM EST
Astronomical Twilight 5:03 AM EST 7:05 PM EST
Moon 1:33 PM EST (2/21) 3:50 AM EST (2/21)
Length of Visible Light 11h 46m
Length of Day
10h 47m
Waxing Gibbous, 83% of the Moon is Illuminated
Feb 21
Waxing Gibbous
Feb 25
Full
Mar 4
Last Quarter
Mar 11
New
Mar 19
First Quarter

Hourly Weather History & Observations

Time (EST) Temp. Windchill Dew Point Humidity Pressure Visibility Wind Dir Wind Speed Gust Speed Precip Events Conditions
12:02 AM 17.6 °F 3.2 °F 10.4 °F 73% 29.73 in 1.2 mi NNW 15.0 mph 23.0 mph 0.00 in Snow Light Snow
12:12 AM 17.6 °F 2.7 °F 10.4 °F 73% 29.74 in 1.0 mi NW 16.1 mph 23.0 mph 0.00 in Snow Light Snow
12:45 AM 15.8 °F 6.1 °F 8.6 °F 73% 29.76 in 1.5 mi Variable 6.9 mph 19.6 mph 0.00 in Snow Light Snow
12:54 AM 16.0 °F 7.4 °F 9.0 °F 74% 29.80 in 2.5 mi NW 5.8 mph - 0.00 in Snow Light Snow
1:02 AM 15.8 °F 5.1 °F 8.6 °F 73% 29.76 in 3.0 mi North 8.1 mph - 0.00 in Snow Light Snow
1:29 AM 15.8 °F 3.4 °F 8.6 °F 73% 29.77 in 1.8 mi NNW 10.4 mph 19.6 mph 0.00 in Snow Light Snow
1:54 AM 14.0 °F 3.9 °F 7.0 °F 74% 29.82 in 2.0 mi North 6.9 mph - 0.00 in Snow Light Snow
2:09 AM 14.0 °F 2.9 °F 6.8 °F 73% 29.78 in 1.8 mi NNW 8.1 mph - 0.00 in Snow Light Snow
2:20 AM 12.2 °F 2.9 °F 6.8 °F 79% 29.78 in 2.0 mi North 5.8 mph - 0.00 in Snow Light Snow
2:38 AM 12.2 °F 2.9 °F 6.8 °F 79% 29.78 in 3.0 mi North 5.8 mph - 0.00 in Snow Light Snow
2:54 AM 12.0 °F 4.1 °F 3.9 °F 70% 29.82 in 6.0 mi NNW 4.6 mph - 0.00 in Snow Light Snow
3:40 AM 10.4 °F 4.0 °F 3.2 °F 73% 29.78 in 7.0 mi North 3.5 mph - 0.00 in Snow Light Snow
3:54 AM 10.9 °F 2.9 °F 3.0 °F 70% 29.83 in 10.0 mi Variable 4.6 mph - 0.00 in   Overcast
4:54 AM 10.9 °F 4.7 °F 3.0 °F 70% 29.85 in 5.0 mi NNE 3.5 mph - 0.00 in Snow Light Snow
5:54 AM 9.0 °F -2.2 °F 3.0 °F 77% 29.88 in 4.0 mi North 6.9 mph - 0.00 in Snow Light Snow
6:03 AM 8.6 °F -1.3 °F 3.2 °F 79% 29.83 in 4.0 mi North 5.8 mph - 0.00 in Snow Light Snow
6:54 AM 9.0 °F -0.9 °F 1.9 °F 73% 29.90 in 7.0 mi North 5.8 mph - 0.00 in   Overcast
7:54 AM 10.0 °F -1.9 °F 1.9 °F 70% 29.93 in 10.0 mi NNW 8.1 mph - N/A   Overcast
8:54 AM 9.0 °F -3.2 °F 1.0 °F 70% 29.96 in 8.0 mi NE 8.1 mph 16.1 mph N/A   Overcast
9:14 AM 10.4 °F 0.8 °F 1.4 °F 67% 29.91 in 10.0 mi NNE 5.8 mph - N/A   Overcast
9:44 AM 12.2 °F 0.7 °F 1.4 °F 62% 29.91 in 10.0 mi North 8.1 mph - N/A   Overcast
9:54 AM 12.0 °F -0.4 °F 3.0 °F 67% 29.96 in 10.0 mi North 9.2 mph - N/A   Overcast
10:54 AM 14.0 °F -0.2 °F 3.0 °F 62% 29.98 in 9.0 mi NNE 12.7 mph 17.3 mph 0.00 in   Overcast
11:22 AM 12.2 °F -1.0 °F 3.2 °F 67% 29.95 in 10.0 mi NNE 10.4 mph - N/A   Overcast
11:54 AM 14.0 °F 3.9 °F 3.9 °F 64% 30.00 in 10.0 mi North 6.9 mph - N/A   Overcast
1:54 PM 16.0 °F 4.4 °F 7.0 °F 68% 30.04 in 9.0 mi North 9.2 mph - N/A   Overcast
2:44 PM 15.8 °F 5.1 °F 8.6 °F 73% 30.03 in 2.5 mi NNE 8.1 mph - 0.00 in Snow Light Snow
2:54 PM 15.1 °F 4.2 °F 8.1 °F 74% 30.08 in 1.8 mi NNE 8.1 mph - 0.00 in Snow Light Snow
3:10 PM 15.8 °F 7.2 °F 8.6 °F 73% 30.04 in 2.5 mi Variable 5.8 mph - 0.00 in Snow Light Snow
3:19 PM 15.8 °F 4.2 °F 8.6 °F 73% 30.04 in 4.0 mi North 9.2 mph - 0.00 in Snow Light Snow
3:54 PM 16.0 °F 5.3 °F 9.0 °F 74% 30.12 in 7.0 mi North 8.1 mph 16.1 mph 0.00 in Snow Light Snow
4:47 PM 15.8 °F 3.4 °F 8.6 °F 73% 30.11 in 9.0 mi North 10.4 mph - 0.00 in Snow Light Snow
4:54 PM 16.0 °F 3.6 °F 9.0 °F 74% 30.16 in 9.0 mi North 10.4 mph - 0.00 in   Overcast
5:36 PM 15.8 °F 4.2 °F 8.6 °F 73% 30.15 in 3.0 mi North 9.2 mph - 0.00 in Snow Light Snow
5:54 PM 16.0 °F 6.3 °F 10.0 °F 77% 30.22 in 9.0 mi North 6.9 mph - 0.00 in   Overcast
6:06 PM 15.8 °F 7.2 °F 10.4 °F 79% 30.17 in 10.0 mi North 5.8 mph - N/A   Overcast
6:54 PM 17.1 °F 8.7 °F 10.9 °F 77% 30.25 in 10.0 mi Variable 5.8 mph - N/A   Overcast
7:34 PM 17.6 °F 9.3 °F 10.4 °F 73% 30.21 in 10.0 mi NE 5.8 mph - N/A   Overcast
7:54 PM 17.1 °F 7.6 °F 10.9 °F 77% 30.26 in 9.0 mi NE 6.9 mph - 0.00 in Snow Light Snow
8:04 PM 17.6 °F 12.3 °F 10.4 °F 73% 30.21 in 10.0 mi Variable 3.5 mph - 0.00 in   Mostly Cloudy
8:54 PM 18.0 °F - 10.9 °F 74% 30.28 in 10.0 mi Calm Calm - 0.00 in   Overcast
9:54 PM 18.0 °F - 12.0 °F 78% 30.30 in 8.0 mi Calm Calm - N/A   Overcast
10:54 PM 19.0 °F - 12.9 °F 77% 30.34 in 10.0 mi Calm Calm - N/A   Overcast
11:54 PM 19.0 °F 13.9 °F 14.0 °F 81% 30.38 in 10.0 mi South 3.5 mph - N/A   Overcast